[[[{"header":{"parameterUnit":"kt","parameterCategory":2,"dx":1,"dy":1,"la1":30.253999710083008,"la2":30.299108505249023,"lo1":-89.0895004272461,"lo2":-89.04439544677734,"nx":28,"ny":28,"refTime":"2022-10-01T21:00:00:Z","depth":"0","parameterNumber":2,"parameterNumberName":"U-component_of_CURRENTS"},"data":[0.6769,0.6721,0.6644,0.6435,0.6304,0.5959,0.5794,0.5558,0.5449,0.5122,0.4887,0.4902,0.4913,0.4682,0.4335,0.4223,0.3983,0.3712,0.3908,0.4422,0.4513,0.46,0.4287,0.3736,0.3736,0.2841,0.2835,0.2829,0.6708,0.6645,0.6661,0.6516,0.6408,0.638,0.6292,0.6076,0.5936,0.6022,0.6011,0.5791,0.5611,0.5529,0.5205,0.4977,0.4797,0.4839,0.4506,0.4463,0.5236,0.4921,0.4496,0.4496,0.4496,0.4497,0.4497,0.4497,0.6551,0.6573,0.6461,0.6457,0.644,0.6369,0.6263,0.6288,0.6317,0.6298,0.6557,0.6513,0.6444,0.6481,0.6473,0.6066,0.6211,0.5802,0.5834,0.573,0.5314,0.5984,0.6038,0.6043,0.6048,0.6052,0.6056,0,0.6323,0.6277,0.6272,0.6231,0.6252,0.6254,0.6276,0.6331,0.6383,0.6531,0.6679,0.6821,0.7027,0.6875,0.7003,0.702,0.6699,0.6951,0.6835,0.587,0.5501,0.5379,0.6289,0.6423,0.6431,0.6437,0.6442,0.6445,0.6035,0.6063,0.5982,0.5998,0.5984,0.6053,0.6099,0.6129,0.6225,0.6489,0.6616,0.6924,0.7077,0.7389,0.7325,0.747,0.7298,0.714,0.6838,0.6541,0.6549,0.6371,0.6218,0.6531,0.652,0.6511,0.6504,0,0.5901,0.5774,0.5832,0.5777,0.5774,0.5882,0.5913,0.6041,0.6174,0.6404,0.6504,0.6755,0.7,0.7178,0.7471,0.7391,0.7329,0.7568,0.703,0.7014,0.6614,0.6569,0.6539,0.6368,0.7565,0.7562,0.7559,0,0.5623,0.5694,0.5538,0.5568,0.5692,0.5652,0.583,0.5913,0.6077,0.6238,0.6384,0.659,0.6765,0.6992,0.7038,0.7169,0.7397,0.7106,0.7171,0.6766,0.6707,0.6584,0.652,0.7453,0.7449,0.7446,0.7443,0,0.5468,0.5419,0.5452,0.5456,0.5456,0.5533,0.5569,0.5736,0.5842,0.6091,0.6239,0.648,0.6622,0.6807,0.6856,0.6777,0.7197,0.7152,0.7073,0.706,0.6768,0.6711,0.6739,0.7439,0.7437,0.7436,0.7435,0,0.527,0.521,0.5257,0.5257,0.5284,0.5346,0.5546,0.5616,0.5811,0.5897,0.6088,0.6185,0.6352,0.6232,0.6553,0.6424,0.653,0.6604,0.6627,0.6395,0.6375,0.6338,0.6453,0.6257,0.6857,0.6852,0.6847,0,0.5175,0.5124,0.5026,0.5111,0.5144,0.5167,0.5256,0.5372,0.5472,0.5647,0.5744,0.5925,0.581,0.5918,0.6007,0.6127,0.6284,0.6039,0.653,0.6543,0.6314,0.6484,0.6042,0.6384,0.6774,0.6781,0.6787,0,0.5089,0.4897,0.4911,0.4917,0.4931,0.4995,0.5071,0.5218,0.5337,0.5412,0.5616,0.5673,0.5733,0.5793,0.5836,0.5941,0.6164,0.5934,0.5944,0.6117,0.6666,0.6415,0.6441,0.6261,0.6268,0.6274,0.6729,0,0.4912,0.487,0.4859,0.4827,0.4873,0.4935,0.4991,0.5053,0.5103,0.5193,0.5379,0.5428,0.5597,0.5606,0.5571,0.5784,0.5833,0.5843,0.5838,0.5943,0.6123,0.6169,0.5615,0.5614,0.5613,0.5612,0,0,0.4924,0.4829,0.4757,0.4746,0.4806,0.4836,0.4909,0.4952,0.5067,0.5149,0.5119,0.5361,0.5364,0.5573,0.5569,0.5582,0.5722,0.5588,0.5857,0.5884,0.5909,0.6087,0.6132,0.5611,0.5611,0.561,0.561,0,0.4852,0.4766,0.4726,0.475,0.4792,0.485,0.4857,0.4953,0.5012,0.5085,0.5168,0.5248,0.5337,0.5443,0.5499,0.5562,0.5677,0.5598,0.5626,0.5843,0.5871,0.5896,0.6076,0.6117,0.5608,0.5608,0.5608,0,0.4838,0.4786,0.4765,0.4751,0.48,0.4858,0.4899,0.4962,0.5035,0.5076,0.5168,0.5228,0.531,0.5406,0.5442,0.5429,0.5648,0.5514,0.5519,0.5503,0.5727,0.5757,0.5784,0.5447,0.5446,0.5446,0,0,0.4813,0.4731,0.4783,0.476,0.4776,0.4865,0.491,0.4977,0.5049,0.5082,0.5145,0.5215,0.5296,0.5332,0.5392,0.5438,0.5531,0.5494,0.5502,0.5508,0.5497,0.5719,0.5747,0.5444,0.5444,0.5444,0,0,0.4853,0.4815,0.4815,0.4775,0.4847,0.4958,0.4989,0.5037,0.5103,0.5112,0.5182,0.5201,0.5278,0.5294,0.5262,0.5417,0.5385,0.5391,0.5416,0.5425,0.5433,0.5412,0.5314,0,0,0,0,0,0.4844,0.4801,0.4798,0.48,0.4846,0.4929,0.495,0.5054,0.5072,0.5098,0.5159,0.5186,0.5323,0.5296,0.5302,0.537,0.5419,0.5423,0.5427,0.547,0.548,0.5489,0,0,0,0,0,0,0.4845,0.4839,0.4804,0.489,0.4906,0.4928,0.4993,0.5021,0.5075,0.5089,0.5174,0.5189,0.5247,0.5294,0.53,0.5365,0.5313,0.5421,0.5424,0.5428,0.5474,0.5482,0.5489,0,0,0,0,0,0.4847,0.4843,0.4864,0.4897,0.491,0.5041,0.4994,0.5018,0.506,0.5153,0.5172,0.514,0.5244,0.5254,0.5298,0.5363,0.5309,0.5311,0.5423,0.5426,0.5429,0.5478,0,0,0,0,0,0,0.4849,0.4881,0.4872,0.4885,0.4916,0.5046,0.5058,0.5016,0.5122,0.5143,0.5121,0.513,0.5242,0.525,0.5257,0.5363,0.5306,0.5308,0.5309,0.5425,0.5428,0.543,0,0,0,0,0,0,0.4886,0.4888,0.4879,0.4896,0.4912,0.505,0.506,0.507,0.5119,0.5082,0.5095,0.5123,0.5218,0.5247,0.5253,0.5268,0.5304,0.5306,0.5307,0.5308,0.5427,0.5429,0,0,0,0,0,0,0.4891,0.4894,0.4893,0.4905,0.4919,0.507,0.5063,0.5091,0.517,0.5073,0.5177,0.518,0.5211,0.522,0.5249,0.5261,0.5266,0.5304,0.5305,0.5306,0.5307,0,0,0,0,0,0,0,0.4896,0.4819,0.48,0.4912,0.4925,0.5008,0.5011,0.5014,0.5171,0.5173,0.5176,0.5179,0.5293,0.5295,0.5297,0.5255,0,0,0.5304,0.5305,0,0,0,0,0,0,0,0,0.4824,0.482,0.48,0.4803,0.4806,0.5008,0.5011,0.5013,0.5171,0.5173,0.5175,0.5178,0.5294,0.5295,0.5297,0,0,0,0,0,0,0,0,0,0,0,0,0,0,0,0.48,0.4803,0,0.5008,0.501,0.5013,0.5171,0.5173,0.5175,0.5177,0.5294,0.5295,0.5297,0,0,0,0,0,0,0,0,0,0,0,0,0,0,0,0,0,0,0,0,0,0,0,0,0,0,0,0,0,0,0,0,0,0,0,0,0,0,0,0,0,0,0,0,0,0,0,0,0,0,0,0,0,0,0,0,0,0,0,0,0,0,0,0,0,0,0,0,0]}],[{"header":{"parameterUnit":"kt","parameterCategory":2,"dx":1,"dy":1,"la1":30.253999710083008,"la2":30.299108505249023,"lo1":-89.0895004272461,"lo2":-89.04439544677734,"nx":28,"ny":28,"refTime":"2022-10-01T21:00:00:Z","depth":"0","parameterNumber":3,"parameterNumberName":"V-component_of_CURRENTS"},"data":[0.0991,0.1136,0.1218,0.1552,0.176,0.2047,0.2257,0.2595,0.2873,0.3171,0.323,0.3234,0.2583,0.0715,-0.0527,-0.0772,-0.1065,-0.1195,-0.1284,-0.0941,-0.0892,-0.0846,-0.1002,-0.1317,-0.1318,-0.1834,-0.184,-0.1844,0.0974,0.1075,0.1289,0.1542,0.1776,0.1896,0.2271,0.2474,0.2818,0.3134,0.332,0.3019,0.228,0.1541,0.0386,-0.0168,-0.0347,-0.0446,-0.0599,-0.0628,-0.0063,-0.0195,-0.0343,-0.0342,-0.0342,-0.0342,-0.0342,-0.0341,0.0927,0.1033,0.1211,0.1424,0.1656,0.1919,0.2117,0.2389,0.2692,0.3022,0.3092,0.3202,0.2548,0.176,0.1362,0.0497,0.0534,0.0159,0.0066,0.001,-0.0191,0.0392,0.0423,0.0424,0.0425,0.0426,0.0426,0,0.0847,0.0933,0.1086,0.1327,0.1521,0.1752,0.1994,0.2187,0.2398,0.2619,0.2861,0.292,0.2601,0.2135,0.1577,0.1269,0.0659,0.0801,0.0567,0.0089,-0.0051,-0.0184,0.0439,0.0585,0.0587,0.0589,0.059,0.0591,0.071,0.0835,0.1088,0.1213,0.1309,0.1529,0.1681,0.184,0.2014,0.2288,0.2434,0.246,0.2472,0.213,0.1597,0.1221,0.0939,0.0863,0.0606,0.0345,0.0179,0.0074,-0.001,0.0611,0.0609,0.0606,0.0605,0,0.0632,0.073,0.0937,0.1128,0.1199,0.1351,0.1573,0.1723,0.1836,0.2076,0.2141,0.2141,0.2059,0.1781,0.1557,0.123,0.0881,0.0926,0.0859,0.0798,0.0313,0.0192,0.0161,0.0067,0.0792,0.0791,0.0789,0,0.0541,0.0671,0.0827,0.0924,0.1133,0.1166,0.1381,0.1424,0.1564,0.1737,0.1649,0.1787,0.1494,0.1437,0.1162,0.0942,0.1062,0.0631,0.0585,0.0505,0.0484,0.0236,0.0099,0.074,0.0739,0.0737,0.0736,0,0.0413,0.0579,0.0747,0.0789,0.0924,0.1002,0.1066,0.1123,0.1209,0.1312,0.1414,0.1369,0.1387,0.1236,0.0952,0.0843,0.0875,0.0713,0.0532,0.0524,0.0434,0.0408,0.0398,0.0734,0.0733,0.0733,0.0732,0,0.0307,0.0424,0.0593,0.0752,0.0783,0.0845,0.0966,0.0991,0.1037,0.1027,0.1046,0.0974,0.0968,0.0754,0.0676,0.0608,0.0489,0.0381,0.0385,0.0218,0.0062,0.0172,0.0352,0.0105,0.0375,0.0372,0.0369,0,0.0189,0.0366,0.0389,0.0527,0.061,0.0563,0.0613,0.0609,0.0582,0.0649,0.0551,0.0585,0.0351,0.0368,0.0326,0.0199,0.0237,0.0122,0.0134,0.0136,0.0035,0.0218,0.0139,0.0307,0.0329,0.0333,0.0336,0,0.0098,0.023,0.0246,0.0318,0.032,0.0343,0.036,0.037,0.0438,0.0322,0.0419,0.0267,0.0223,0.0173,0.0055,0.0047,0.0167,-0.0091,-0.0094,0.0016,0.0298,0.0177,0.0192,0.0089,0.0093,0.0097,0.0305,0,0.007,0.0135,0.0175,0.0224,0.0221,0.0249,0.0182,0.0171,0.0103,0.0047,0.0054,-0.0075,-0.0109,-0.0174,-0.0292,-0.0205,-0.0239,-0.0335,-0.0396,-0.027,-0.0202,-0.0176,-0.0539,-0.0543,-0.0546,-0.0549,0,0,-0.0047,0.0046,0.0015,0.0067,0.0069,-0.0038,0.0005,-0.0052,-0.0155,-0.0152,-0.0248,-0.033,-0.0442,-0.0408,-0.0423,-0.0479,-0.0464,-0.0499,-0.0356,-0.0334,-0.0314,-0.024,-0.0212,-0.0554,-0.0556,-0.0557,-0.0558,0,-0.0049,-0.0042,0.0017,-0.0002,-0.0042,-0.0097,-0.0086,-0.0184,-0.0238,-0.0265,-0.0383,-0.0416,-0.0524,-0.0577,-0.0621,-0.0526,-0.0591,-0.0577,-0.0428,-0.0386,-0.0359,-0.0337,-0.0259,-0.0231,-0.0566,-0.0565,-0.0565,0,-0.0125,-0.0119,-0.011,-0.0124,-0.0181,-0.0178,-0.0302,-0.0328,-0.0339,-0.0496,-0.0522,-0.0607,-0.0713,-0.0728,-0.074,-0.0783,-0.0683,-0.0768,-0.0754,-0.0721,-0.0682,-0.0652,-0.0626,-0.0957,-0.0957,-0.0958,0,0,-0.0137,-0.0089,-0.0168,-0.0144,-0.0158,-0.0272,-0.0308,-0.0382,-0.0459,-0.0496,-0.0587,-0.0674,-0.073,-0.0758,-0.0825,-0.0813,-0.0813,-0.0808,-0.079,-0.0774,-0.0732,-0.0689,-0.0662,-0.0959,-0.0959,-0.096,0,0,-0.0177,-0.0207,-0.025,-0.0214,-0.0279,-0.0404,-0.0411,-0.0482,-0.0551,-0.0564,-0.0697,-0.0724,-0.0739,-0.0811,-0.0823,-0.0853,-0.094,-0.0939,-0.0784,-0.0763,-0.0746,-0.0681,-0.0959,0,0,0,0,0,-0.0244,-0.0188,-0.0225,-0.0232,-0.0319,-0.0369,-0.039,-0.0515,-0.0566,-0.0565,-0.0653,-0.0738,-0.0859,-0.0872,-0.0887,-0.0852,-0.0984,-0.098,-0.0976,-0.0777,-0.0753,-0.0734,0,0,0,0,0,0,-0.0247,-0.0251,-0.0228,-0.0336,-0.0359,-0.0371,-0.0493,-0.0526,-0.057,-0.0589,-0.0718,-0.0742,-0.0841,-0.0871,-0.0883,-0.0847,-0.0955,-0.0982,-0.0979,-0.0975,-0.0769,-0.075,-0.0733,0,0,0,0,0,-0.0251,-0.0255,-0.0345,-0.0341,-0.0361,-0.0511,-0.0495,-0.0524,-0.0564,-0.0702,-0.073,-0.0653,-0.0837,-0.0855,-0.0879,-0.0839,-0.0947,-0.0951,-0.098,-0.0977,-0.0974,-0.0759,0,0,0,0,0,0,-0.0254,-0.0301,-0.0354,-0.0368,-0.0365,-0.0515,-0.0536,-0.0522,-0.0677,-0.0704,-0.0644,-0.0656,-0.0834,-0.0848,-0.0861,-0.083,-0.0941,-0.0945,-0.0948,-0.0978,-0.0975,-0.0973,0,0,0,0,0,0,-0.03,-0.031,-0.0361,-0.0384,-0.0402,-0.0518,-0.0536,-0.0566,-0.0676,-0.0611,-0.0626,-0.0647,-0.0804,-0.0843,-0.0854,-0.0899,-0.0936,-0.094,-0.0943,-0.0945,-0.0976,-0.0974,0,0,0,0,0,0,-0.0308,-0.0317,-0.0382,-0.0395,-0.0411,-0.0577,-0.0549,-0.0626,-0.0709,-0.0601,-0.0718,-0.0722,-0.0796,-0.081,-0.0848,-0.0887,-0.0896,-0.0936,-0.0939,-0.0941,-0.0942,0,0,0,0,0,0,0,-0.0315,-0.0206,-0.0269,-0.0404,-0.0418,-0.0495,-0.0499,-0.0503,-0.071,-0.0714,-0.0717,-0.0721,-0.0913,-0.0918,-0.0922,-0.0878,0,0,-0.0936,-0.0938,0,0,0,0,0,0,0,0,-0.0207,-0.0206,-0.0269,-0.0272,-0.0275,-0.0495,-0.0499,-0.0502,-0.0711,-0.0714,-0.0717,-0.0719,-0.0914,-0.0918,-0.0922,0,0,0,0,0,0,0,0,0,0,0,0,0,0,0,-0.027,-0.0272,0,-0.0496,-0.0499,-0.0501,-0.0711,-0.0714,-0.0716,-0.0718,-0.0915,-0.0918,-0.0921,0,0,0,0,0,0,0,0,0,0,0,0,0,0,0,0,0,0,0,0,0,0,0,0,0,0,0,0,0,0,0,0,0,0,0,0,0,0,0,0,0,0,0,0,0,0,0,0,0,0,0,0,0,0,0,0,0,0,0,0,0,0,0,0,0,0,0,0,0]}]],[[{"header":{"parameterUnit":"kt","parameterCategory":2,"dx":1,"dy":1,"la1":30.253999710083008,"la2":30.299108505249023,"lo1":-89.0895004272461,"lo2":-89.04439544677734,"nx":28,"ny":28,"refTime":"2022-10-01T21:00:00:Z","depth":"2","parameterNumber":2,"parameterNumberName":"U-component_of_CURRENTS"},"data":[0.4045,0.3975,0.3946,0.387,0.3968,0.3861,0.3781,0.3644,0.3611,0.3434,0.3392,0.3618,0.368,0.3104,0.2971,0.2718,0.302,0.2622,0.3708,0.3813,0.3885,0.4037,0.3748,0,0,0,0,0,0.4079,0.4054,0.4133,0.4147,0.4159,0.4254,0.426,0.4155,0.4073,0.4205,0.4212,0.3837,0.367,0.3728,0.3424,0.3347,0.3361,0.3222,0.3228,0.3316,0.3393,0.3142,0.2539,0.2535,0.2531,0.2527,0,0,0.4143,0.4135,0.4204,0.4244,0.433,0.4326,0.4325,0.4417,0.4473,0.4562,0.4746,0.4691,0.4692,0.4435,0.4286,0.4188,0.4509,0.4315,0.4347,0.4389,0.4188,0.3994,0.3862,0.3867,0.3872,0.3875,0.3879,0,0.4114,0.4172,0.4225,0.4305,0.4375,0.4438,0.457,0.4656,0.4839,0.4967,0.5069,0.5141,0.5227,0.4993,0.498,0.4928,0.505,0.4873,0.5588,0.4636,0.4449,0.4431,0.4446,0.4441,0.445,0.4456,0.4461,0.4464,0.4079,0.4144,0.4249,0.4285,0.4337,0.4476,0.4568,0.4741,0.4838,0.5127,0.5197,0.542,0.5446,0.5569,0.548,0.5494,0.5625,0.5081,0.4895,0.5349,0.5333,0.5316,0.5298,0.4556,0.4545,0.4535,0.4527,0,0.4078,0.4087,0.4177,0.4282,0.4337,0.4426,0.461,0.4724,0.4917,0.5105,0.5205,0.5401,0.5535,0.565,0.5819,0.5702,0.5753,0.5684,0.5212,0.5149,0.5351,0.5324,0.5513,0.5505,0.5498,0.5493,0.5488,0,0.3997,0.4088,0.4126,0.4179,0.4305,0.4379,0.4553,0.4651,0.4846,0.499,0.5152,0.5268,0.5443,0.5578,0.5597,0.5585,0.58,0.546,0.546,0.512,0.5062,0.5578,0.5548,0.5815,0.5814,0.5812,0.5811,0,0.3925,0.4022,0.4088,0.4124,0.4233,0.4314,0.4395,0.4562,0.4669,0.4895,0.5022,0.5215,0.5321,0.5451,0.5471,0.5436,0.5681,0.5648,0.5428,0.5407,0.5112,0.5052,0.5809,0.5809,0.5808,0.5808,0.5807,0,0.3862,0.3894,0.3981,0.4102,0.4138,0.4212,0.4388,0.4465,0.4652,0.4724,0.4879,0.4966,0.5124,0.5028,0.5253,0.5188,0.5225,0.5259,0.5269,0.5005,0.4922,0.4735,0.4785,0.5316,0.5312,0.5308,0.5305,0,0.3797,0.3855,0.3867,0.399,0.4049,0.4101,0.4186,0.4292,0.4375,0.4527,0.4594,0.4748,0.4673,0.4762,0.484,0.4943,0.5029,0.4881,0.5134,0.514,0.4898,0.5017,0.4628,0.4748,0.5256,0.5261,0.5265,0,0.3746,0.377,0.3803,0.3849,0.3918,0.3975,0.4047,0.4168,0.4273,0.4331,0.4493,0.4549,0.4607,0.4645,0.4667,0.4756,0.4936,0.4761,0.4766,0.4844,0.5257,0.4981,0.4987,0.5019,0.5025,0.503,0.5226,0,0.3675,0.373,0.3756,0.3819,0.3868,0.3927,0.3979,0.4035,0.4082,0.4158,0.4297,0.4316,0.4443,0.4449,0.4437,0.4619,0.4622,0.4625,0.4607,0.4707,0.4767,0.4798,0.4409,0.4408,0.4406,0.4405,0,0,0.3657,0.3681,0.3707,0.3745,0.3799,0.3834,0.3895,0.3935,0.4019,0.4087,0.4051,0.4236,0.4239,0.4385,0.4397,0.4394,0.4477,0.4418,0.4625,0.4649,0.4672,0.4737,0.4769,0.4403,0.4402,0.4402,0.4401,0,0.3631,0.3647,0.3684,0.3724,0.3783,0.3827,0.3845,0.3924,0.396,0.4027,0.4067,0.4132,0.4206,0.426,0.4294,0.4368,0.4432,0.4394,0.4457,0.4607,0.4633,0.4657,0.4726,0.4755,0.4398,0.4398,0.4398,0,0.3607,0.3635,0.3663,0.3713,0.3761,0.3816,0.3835,0.3893,0.3944,0.3958,0.4039,0.408,0.4121,0.4195,0.4225,0.4203,0.4388,0.4294,0.4301,0.4312,0.4467,0.4495,0.452,0.4206,0.4205,0.4205,0,0,0.3599,0.3632,0.3689,0.3717,0.3741,0.3812,0.3852,0.3884,0.3935,0.3958,0.4003,0.4045,0.4101,0.4126,0.4164,0.4223,0.4271,0.4274,0.4283,0.429,0.4306,0.446,0.4487,0.4203,0.4203,0.4203,0,0,0.3606,0.367,0.3679,0.3711,0.3763,0.3842,0.3879,0.3914,0.3963,0.3966,0.4003,0.4012,0.408,0.408,0.4058,0.4177,0.4135,0.414,0.4194,0.4205,0.4214,0.4227,0.4066,0,0,0,0,0,0.3644,0.366,0.3668,0.3681,0.3765,0.3832,0.3848,0.3903,0.3924,0.3944,0.3977,0.399,0.4073,0.4053,0.4065,0.4135,0.4186,0.4189,0.4192,0.4276,0.4287,0.4297,0,0,0,0,0,0,0.365,0.3662,0.3669,0.3741,0.3762,0.3831,0.3849,0.3865,0.3922,0.3926,0.3984,0.3991,0.4007,0.405,0.4059,0.4127,0.4063,0.4187,0.419,0.4192,0.428,0.4289,0.4297,0,0,0,0,0,0.3654,0.3664,0.3774,0.3743,0.3761,0.3841,0.3848,0.3861,0.3909,0.3951,0.3961,0.3949,0.4006,0.4016,0.4056,0.4123,0.4057,0.406,0.4189,0.4191,0.4193,0.4284,0,0,0,0,0,0,0.3658,0.3684,0.378,0.379,0.3734,0.3839,0.3852,0.3858,0.393,0.3942,0.3914,0.3916,0.4006,0.4014,0.4022,0.4121,0.4051,0.4055,0.4057,0.4191,0.4192,0.4194,0,0,0,0,0,0,0.368,0.3691,0.3785,0.377,0.3779,0.3837,0.3848,0.3886,0.3929,0.3888,0.3893,0.3913,0.3982,0.4013,0.4019,0.4078,0.4047,0.4051,0.4053,0.4055,0.4192,0.4193,0,0,0,0,0,0,0.3686,0.3696,0.3768,0.3774,0.3782,0.3895,0.3871,0.3944,0.3945,0.3882,0.3944,0.3943,0.3979,0.3987,0.4016,0.4073,0.4076,0.4047,0.405,0.4051,0.4052,0,0,0,0,0,0,0,0.3692,0.3599,0.3724,0.3778,0.3784,0.3882,0.3884,0.3886,0.3945,0.3945,0.3944,0.3944,0.4028,0.4031,0.4035,0.4069,0,0,0.4047,0.4049,0,0,0,0,0,0,0,0,0.3598,0.3599,0.3724,0.3726,0.3729,0.3882,0.3884,0.3886,0.3945,0.3945,0.3944,0.3944,0.4029,0.4032,0.4035,0,0,0,0,0,0,0,0,0,0,0,0,0,0,0,0.3725,0.3726,0,0.3882,0.3884,0.3886,0.3945,0.3945,0.3944,0.3944,0.4029,0.4032,0.4035,0,0,0,0,0,0,0,0,0,0,0,0,0,0,0,0,0,0,0,0,0,0,0,0,0,0,0,0,0,0,0,0,0,0,0,0,0,0,0,0,0,0,0,0,0,0,0,0,0,0,0,0,0,0,0,0,0,0,0,0,0,0,0,0,0,0,0,0,0]}],[{"header":{"parameterUnit":"kt","parameterCategory":2,"dx":1,"dy":1,"la1":30.253999710083008,"la2":30.299108505249023,"lo1":-89.0895004272461,"lo2":-89.04439544677734,"nx":28,"ny":28,"refTime":"2022-10-01T21:00:00:Z","depth":"2","parameterNumber":3,"parameterNumberName":"V-component_of_CURRENTS"},"data":[0.1428,0.1599,0.1665,0.1982,0.2147,0.2386,0.2513,0.2665,0.2746,0.2736,0.2648,0.249,0.1847,0.1289,0.067,0.0249,0.0203,0.0166,0.0252,0.0471,0.0488,0.0082,0.0114,0,0,0,0,0,0.1354,0.1447,0.1628,0.1863,0.2048,0.2139,0.2399,0.2515,0.269,0.2756,0.2741,0.2232,0.1714,0.1178,0.0418,-0.0056,-0.0055,-0.0188,-0.0076,-0.0062,-0.0051,-0.0042,-0.0178,-0.018,-0.0181,-0.0182,0,0,0.1232,0.1318,0.147,0.1663,0.185,0.207,0.2214,0.2392,0.2569,0.2688,0.2595,0.2451,0.1952,0.1135,0.0633,0.0134,0.0151,-0.003,-0.0021,-0.0011,-0.0004,-0.0007,-0.0128,-0.0128,-0.0129,-0.0129,-0.0129,0,0.1139,0.1186,0.1298,0.1516,0.1679,0.186,0.2047,0.2172,0.229,0.2385,0.2433,0.2343,0.1867,0.1383,0.0776,0.0474,0.0259,0.0141,0.0218,0.021,0.0215,0.0163,0.0169,0.0134,0.0135,0.0136,0.0136,0.0137,0.1021,0.1103,0.1277,0.1388,0.1464,0.1627,0.1754,0.1843,0.1967,0.2062,0.2144,0.2004,0.188,0.1367,0.09,0.0455,0.0406,0.0185,0.0123,0.0178,0.0122,0.0127,0.0132,0.0149,0.0147,0.0146,0.0145,0,0.0966,0.1033,0.1171,0.1306,0.1362,0.1467,0.1636,0.1739,0.1784,0.1922,0.1951,0.1835,0.1631,0.1327,0.1006,0.0736,0.0458,0.0329,0.0386,0.033,0.015,0.015,0.0097,0.0093,0.009,0.0088,0.0085,0,0.092,0.0999,0.1112,0.1177,0.1321,0.1338,0.1478,0.1492,0.1562,0.1669,0.1551,0.1586,0.1311,0.1162,0.0899,0.0604,0.0669,0.0341,0.0278,0.032,0.0313,0.0354,0.0348,0.0415,0.0416,0.0416,0.0417,0,0.0857,0.095,0.1061,0.1087,0.1175,0.1227,0.1269,0.1288,0.1349,0.1353,0.1403,0.1289,0.1267,0.1074,0.0813,0.0782,0.0604,0.0533,0.0306,0.0297,0.0285,0.0273,0.0418,0.0418,0.0418,0.0418,0.0418,0,0.0798,0.0868,0.0975,0.1067,0.1083,0.1125,0.1189,0.1206,0.12,0.118,0.1147,0.1076,0.102,0.0895,0.0721,0.0737,0.0585,0.0471,0.0464,0.0348,0.0245,0.0207,0.025,0.034,0.034,0.034,0.034,0,0.0755,0.0848,0.0844,0.0925,0.0972,0.0939,0.0972,0.0963,0.0933,0.0944,0.0851,0.0853,0.0716,0.0714,0.0646,0.0527,0.0477,0.0496,0.034,0.0336,0.0247,0.0294,0.033,0.0254,0.0341,0.0341,0.0341,0,0.0703,0.0756,0.0758,0.0803,0.079,0.0798,0.081,0.0809,0.0839,0.0752,0.0782,0.0688,0.0637,0.0607,0.0525,0.0483,0.0469,0.0401,0.0396,0.0364,0.0396,0.0304,0.0294,0.0423,0.0424,0.0425,0.0341,0,0.0697,0.0716,0.0727,0.0735,0.0729,0.0738,0.0693,0.0681,0.0633,0.0591,0.0572,0.0479,0.0443,0.0404,0.0345,0.036,0.0315,0.0271,0.0225,0.0288,0.0239,0.0239,0.0206,0.0204,0.0202,0.0201,0,0,0.0646,0.0665,0.0617,0.0637,0.0633,0.0556,0.058,0.0542,0.0466,0.0462,0.0409,0.0329,0.0261,0.0263,0.0272,0.0231,0.0196,0.0225,0.0257,0.0264,0.027,0.0227,0.023,0.0198,0.0197,0.0197,0.0196,0,0.0633,0.0608,0.0622,0.0603,0.0561,0.0523,0.0523,0.0449,0.0419,0.0392,0.0322,0.0287,0.0216,0.0184,0.0157,0.0207,0.0131,0.0185,0.0274,0.0243,0.0252,0.026,0.022,0.0224,0.0192,0.0192,0.0192,0,0.0597,0.0572,0.0561,0.0522,0.0479,0.0477,0.0395,0.0367,0.0364,0.0259,0.0239,0.018,0.0118,0.0106,0.0095,0.0071,0.0075,0.0067,0.0076,0.01,0.0066,0.0077,0.0087,-0.0038,-0.0038,-0.0039,0,0,0.0587,0.0584,0.0517,0.0509,0.0494,0.0413,0.0384,0.0342,0.0287,0.0264,0.0201,0.0148,0.0112,0.0091,0.005,0.0038,0.0004,0.0043,0.0053,0.0063,0.0092,0.0061,0.0072,-0.0041,-0.0041,-0.0041,0,0,0.0568,0.0509,0.0482,0.0472,0.0427,0.0337,0.0326,0.0278,0.0233,0.0227,0.0142,0.0126,0.0109,0.0066,0.0053,0.0035,-0.0013,-0.0012,0.0067,0.0079,0.009,0.0136,-0.0021,0,0,0,0,0,0.0509,0.052,0.0497,0.0484,0.0398,0.0352,0.0337,0.0268,0.0232,0.0236,0.018,0.0128,0.0049,0.0036,0.002,0.0037,-0.0062,-0.0058,-0.0055,0.0043,0.0057,0.0068,0,0,0,0,0,0,0.0503,0.0491,0.0495,0.041,0.0389,0.0351,0.0289,0.027,0.0232,0.0224,0.0139,0.0125,0.0071,0.0039,0.0026,0.0043,-0.0017,-0.0061,-0.0057,-0.0055,0.0047,0.0059,0.0069,0,0,0,0,0,0.0499,0.0488,0.0377,0.0408,0.039,0.0297,0.0289,0.0272,0.0243,0.0155,0.0139,0.0194,0.0072,0.0057,0.0031,0.0051,-0.0009,-0.0013,-0.0059,-0.0056,-0.0054,0.0053,0,0,0,0,0,0,0.0495,0.0467,0.037,0.036,0.0407,0.0298,0.0282,0.0275,0.0175,0.0159,0.0206,0.0201,0.0074,0.0062,0.0051,0.0058,-0.0002,-0.0007,-0.0009,-0.0057,-0.0055,-0.0053,0,0,0,0,0,0,0.0471,0.046,0.0365,0.0367,0.0357,0.0299,0.0285,0.0241,0.0175,0.0232,0.0225,0.0205,0.0093,0.0065,0.0056,-0.0012,0.0003,-0.0001,-0.0004,-0.0006,-0.0055,-0.0053,0,0,0,0,0,0,0.0464,0.0454,0.037,0.0362,0.0353,0.0236,0.0257,0.0176,0.0169,0.0238,0.0167,0.0166,0.0098,0.0087,0.006,-0.0004,-0.001,0.0003,0.0,-0.0002,-0.0003,0,0,0,0,0,0,0,0.0459,0.0553,0.0428,0.0357,0.0349,0.0267,0.0265,0.0262,0.0169,0.0168,0.0167,0.0166,0.0028,0.0024,0.0019,0.0003,0,0,0.0004,0.0001,0,0,0,0,0,0,0,0,0.0555,0.0554,0.0428,0.0426,0.0424,0.0267,0.0265,0.0263,0.0169,0.0168,0.0167,0.0167,0.0027,0.0023,0.0019,0,0,0,0,0,0,0,0,0,0,0,0,0,0,0,0.0428,0.0426,0,0.0267,0.0265,0.0263,0.0168,0.0168,0.0167,0.0167,0.0026,0.0023,0.002,0,0,0,0,0,0,0,0,0,0,0,0,0,0,0,0,0,0,0,0,0,0,0,0,0,0,0,0,0,0,0,0,0,0,0,0,0,0,0,0,0,0,0,0,0,0,0,0,0,0,0,0,0,0,0,0,0,0,0,0,0,0,0,0,0,0,0,0,0]}]],[[{"header":{"parameterUnit":"kt","parameterCategory":2,"dx":1,"dy":1,"la1":30.253999710083008,"la2":30.299108505249023,"lo1":-89.0895004272461,"lo2":-89.04439544677734,"nx":28,"ny":28,"refTime":"2022-10-01T21:00:00:Z","depth":"4","parameterNumber":2,"parameterNumberName":"U-component_of_CURRENTS"},"data":[0.1437,0.1513,0.154,0.1514,0.1559,0.1658,0.1802,0.201,0.2057,0.2365,0.2392,0.2592,0.2634,0.2838,0.2684,0.2695,0.2657,0.2873,0.2864,0.2941,0.2966,0.2989,0.2881,0,0,0,0,0,0.1487,0.1512,0.1597,0.1712,0.1817,0.1913,0.2123,0.2268,0.2558,0.2569,0.2742,0.2791,0.2794,0.2875,0.2743,0.2938,0.2953,0.2763,0.2814,0.2957,0.2985,0.2871,0,0,0,0,0,0,0.1575,0.1609,0.1785,0.1899,0.2021,0.2085,0.2224,0.2355,0.2506,0.2875,0.2889,0.3072,0.325,0.3148,0.3107,0.3032,0.2985,0.2859,0.289,0.2918,0.2807,0.2658,0.252,0,0,0,0,0,0.1644,0.1786,0.1898,0.2052,0.2174,0.2291,0.2468,0.2546,0.2812,0.3043,0.3158,0.3196,0.3262,0.3274,0.3224,0.3169,0.3311,0.3202,0.3216,0.317,0.3082,0.3054,0.3058,0.3092,0.3095,0.3097,0.3099,0,0.1763,0.1832,0.2096,0.2163,0.2272,0.2445,0.2538,0.2786,0.2884,0.3197,0.3243,0.3427,0.3507,0.3412,0.3471,0.3404,0.3342,0.3276,0.3227,0.3127,0.3093,0.309,0.3085,0.3121,0.312,0.3118,0.3116,0,0.1821,0.1956,0.2087,0.23,0.2374,0.2475,0.2718,0.2805,0.3029,0.3189,0.3268,0.3463,0.3548,0.3597,0.3667,0.3531,0.3489,0.34,0.358,0.3555,0.3134,0.312,0.3159,0.315,0.3143,0.3137,0.3132,0,0.1918,0.2004,0.2205,0.2263,0.2393,0.253,0.2688,0.2809,0.3002,0.3116,0.3272,0.3367,0.3506,0.357,0.3556,0.348,0.3648,0.3349,0.3316,0.3513,0.3499,0.3482,0.3463,0.3646,0.3646,0.3645,0.3645,0,0.1934,0.2108,0.2211,0.2264,0.2435,0.2528,0.2629,0.2787,0.2885,0.3078,0.3182,0.3323,0.3431,0.3484,0.35,0.349,0.3599,0.3577,0.3328,0.3308,0.3473,0.3454,0.3645,0.3645,0.3645,0.3645,0.3645,0,0.1997,0.2089,0.2211,0.2368,0.2406,0.2487,0.2642,0.2726,0.2885,0.2962,0.3097,0.3161,0.33,0.3258,0.3396,0.3368,0.3367,0.3374,0.3376,0.3113,0.3019,0.3191,0.3334,0.3332,0.333,0.3328,0.3326,0,0.196,0.2097,0.2187,0.2303,0.2363,0.2453,0.2531,0.2629,0.2714,0.2827,0.2908,0.3025,0.3011,0.3091,0.3156,0.3212,0.3255,0.3188,0.3241,0.3241,0.3015,0.3095,0.3257,0.3298,0.3301,0.3304,0.3306,0,0.1927,0.2108,0.2134,0.2201,0.2317,0.2355,0.2448,0.2538,0.2623,0.2702,0.2814,0.2909,0.2961,0.2992,0.3019,0.3079,0.3201,0.3067,0.3068,0.3084,0.3341,0.3088,0.308,0.3237,0.3241,0.3244,0.3286,0,0.197,0.2062,0.2101,0.2213,0.2262,0.2323,0.2377,0.2444,0.2502,0.2545,0.2678,0.2718,0.281,0.2832,0.2834,0.2969,0.2941,0.2929,0.2892,0.2984,0.2981,0.2997,0.2773,0.2771,0.2769,0.2768,0,0,0.1906,0.2005,0.2067,0.2138,0.2184,0.2229,0.2285,0.2323,0.2395,0.2446,0.2448,0.2592,0.2621,0.2731,0.2763,0.2763,0.2786,0.278,0.2921,0.2938,0.2954,0.2958,0.2976,0.2765,0.2764,0.2763,0.2763,0,0.191,0.1985,0.205,0.2098,0.2181,0.2198,0.2231,0.2283,0.2323,0.2402,0.2422,0.2504,0.2574,0.261,0.2636,0.2731,0.2738,0.2752,0.2828,0.2903,0.2922,0.294,0.2948,0.2965,0.2758,0.2758,0.2759,0,0.1884,0.1947,0.1982,0.2064,0.2101,0.2144,0.2147,0.2213,0.2257,0.2265,0.2352,0.2394,0.2423,0.2504,0.2549,0.2522,0.268,0.2626,0.2635,0.2644,0.2718,0.274,0.276,0.2513,0.2513,0.2512,0,0,0.1885,0.1959,0.2002,0.206,0.2086,0.2124,0.2155,0.2185,0.2226,0.2256,0.2296,0.2343,0.2396,0.2437,0.2472,0.2548,0.255,0.26,0.2612,0.2622,0.2636,0.2712,0.2732,0.2511,0.2511,0.2511,0,0,0.1863,0.1942,0.1972,0.2037,0.2076,0.2093,0.2136,0.2162,0.2221,0.2249,0.2267,0.2281,0.2381,0.2378,0.2352,0.2478,0.2424,0.2431,0.2501,0.2515,0.2526,0.2536,0.2338,0,0,0,0,0,0.1886,0.1931,0.1959,0.1975,0.2048,0.2082,0.209,0.2128,0.2155,0.2188,0.2232,0.2241,0.2358,0.2336,0.2349,0.2425,0.2489,0.2493,0.2496,0.2603,0.2618,0.2631,0,0,0,0,0,0,0.1892,0.191,0.1957,0.1976,0.1993,0.208,0.2077,0.2086,0.2153,0.216,0.2228,0.224,0.2242,0.233,0.2342,0.2415,0.2334,0.249,0.2494,0.2497,0.2609,0.2621,0.2631,0,0,0,0,0,0.1897,0.1912,0.2029,0.1975,0.199,0.2045,0.2077,0.2086,0.2148,0.2173,0.2187,0.2184,0.224,0.2256,0.2337,0.241,0.2326,0.233,0.2492,0.2495,0.2497,0.2614,0,0,0,0,0,0,0.1901,0.1907,0.2032,0.2037,0.1984,0.2042,0.2055,0.2085,0.2159,0.2172,0.2124,0.2128,0.2239,0.2251,0.2262,0.2408,0.2319,0.2324,0.2327,0.2494,0.2497,0.2498,0,0,0,0,0,0,0.1899,0.1911,0.2034,0.2043,0.205,0.2039,0.2051,0.2094,0.2161,0.2106,0.2111,0.2125,0.2241,0.2248,0.2257,0.232,0.2314,0.2318,0.2321,0.2323,0.2496,0.2498,0,0,0,0,0,0,0.1904,0.1914,0.2042,0.2047,0.2052,0.2107,0.2079,0.2163,0.2139,0.2103,0.2142,0.2143,0.2238,0.2248,0.2253,0.2312,0.2318,0.2314,0.2317,0.2319,0.2321,0,0,0,0,0,0,0,0.1908,0.1841,0.2008,0.2049,0.2054,0.2083,0.2084,0.2085,0.2139,0.214,0.2142,0.2143,0.229,0.2294,0.2299,0.2305,0,0,0.2314,0.2316,0,0,0,0,0,0,0,0,0.1837,0.184,0.2008,0.2009,0.2011,0.2083,0.2084,0.2085,0.2139,0.214,0.2141,0.2142,0.2291,0.2295,0.2299,0,0,0,0,0,0,0,0,0,0,0,0,0,0,0,0.2008,0.2009,0,0.2083,0.2084,0.2085,0.214,0.214,0.2141,0.2142,0.2292,0.2295,0.2298,0,0,0,0,0,0,0,0,0,0,0,0,0,0,0,0,0,0,0,0,0,0,0,0,0,0,0,0,0,0,0,0,0,0,0,0,0,0,0,0,0,0,0,0,0,0,0,0,0,0,0,0,0,0,0,0,0,0,0,0,0,0,0,0,0,0,0,0,0]}],[{"header":{"parameterUnit":"kt","parameterCategory":2,"dx":1,"dy":1,"la1":30.253999710083008,"la2":30.299108505249023,"lo1":-89.0895004272461,"lo2":-89.04439544677734,"nx":28,"ny":28,"refTime":"2022-10-01T21:00:00:Z","depth":"4","parameterNumber":3,"parameterNumberName":"V-component_of_CURRENTS"},"data":[0.066,0.0747,0.0785,0.096,0.1072,0.1223,0.1315,0.135,0.1349,0.1348,0.114,0.1053,0.0658,0.0859,0.0273,0.019,0.0095,-0.0346,-0.0351,-0.0482,-0.0478,-0.0475,-0.0323,0,0,0,0,0,0.064,0.0697,0.0787,0.093,0.1046,0.1145,0.1263,0.1309,0.1362,0.1342,0.1324,0.1098,0.0709,0.0514,0.0271,0.0135,-0.0187,-0.016,-0.0264,-0.048,-0.0475,-0.0329,0,0,0,0,0,0,0.062,0.0654,0.0759,0.0879,0.1,0.1128,0.118,0.1257,0.131,0.1306,0.1262,0.1001,0.0835,0.0444,0.0163,-0.009,-0.0119,-0.0177,-0.0189,-0.0188,-0.0029,0.0079,-0.0033,0,0,0,0,0,0.0609,0.0655,0.0717,0.0853,0.0952,0.1057,0.1167,0.1215,0.1269,0.1255,0.1188,0.0981,0.0721,0.0399,0.0091,-0.0162,-0.0344,-0.0442,-0.044,-0.034,-0.0289,-0.0314,-0.0296,-0.0459,-0.0458,-0.0458,-0.0458,0,0.0614,0.0647,0.0766,0.0828,0.0881,0.0971,0.1042,0.1091,0.1139,0.1111,0.1118,0.0923,0.08,0.0374,0.0108,-0.0261,-0.0293,-0.0431,-0.0323,-0.028,-0.031,-0.0292,-0.0276,-0.0454,-0.0455,-0.0455,-0.0455,0,0.0616,0.0673,0.0736,0.082,0.0859,0.0906,0.1009,0.1039,0.1037,0.1055,0.1046,0.0899,0.0685,0.0438,0.0132,0.0005,-0.0227,-0.0309,-0.0195,-0.0233,-0.0278,-0.0263,-0.0449,-0.045,-0.0451,-0.0452,-0.0453,0,0.0641,0.0677,0.0762,0.0791,0.0855,0.0877,0.093,0.0928,0.093,0.0953,0.0854,0.0816,0.0598,0.0421,0.0248,0.0019,-0.0014,-0.0106,-0.0156,-0.0044,-0.0031,-0.0091,-0.0081,-0.0157,-0.0155,-0.0153,-0.0152,0,0.0645,0.07,0.0751,0.0769,0.0821,0.0845,0.0873,0.0861,0.0879,0.0817,0.0808,0.0681,0.0623,0.0454,0.0271,0.0299,0.0012,0.002,-0.0097,-0.0099,-0.0077,-0.007,-0.015,-0.015,-0.0149,-0.0148,-0.0148,0,0.0655,0.0691,0.0741,0.0789,0.0795,0.0822,0.0832,0.084,0.0798,0.0775,0.0722,0.0663,0.0578,0.0551,0.0342,0.0407,0.0281,0.0182,0.017,0.0152,0.0121,0.0061,0.0023,0.0026,0.0028,0.003,0.0032,0,0.0664,0.0703,0.0713,0.0751,0.0768,0.0765,0.0778,0.0766,0.0744,0.0711,0.0646,0.0613,0.0588,0.0566,0.0496,0.0378,0.0296,0.0398,0.0143,0.0135,0.015,0.0116,0.0294,0.0065,0.0061,0.0058,0.0056,0,0.0653,0.0692,0.0694,0.0715,0.072,0.0716,0.0727,0.0712,0.071,0.0672,0.0644,0.0602,0.0564,0.0537,0.0492,0.0426,0.0337,0.0385,0.0379,0.0294,0.0134,0.0151,0.0133,0.0305,0.0303,0.0301,0.0078,0,0.0671,0.0686,0.069,0.0696,0.0693,0.0695,0.0675,0.067,0.0657,0.0631,0.0593,0.0539,0.0494,0.048,0.046,0.041,0.037,0.0354,0.0324,0.0328,0.0229,0.0212,0.0398,0.0396,0.0395,0.0395,0,0,0.0661,0.0664,0.0647,0.0652,0.065,0.0621,0.0627,0.0614,0.0575,0.0562,0.0553,0.0479,0.0448,0.0411,0.0422,0.0402,0.0337,0.0402,0.0339,0.0333,0.0328,0.0234,0.0219,0.0393,0.0393,0.0392,0.0392,0,0.0651,0.0646,0.0651,0.0642,0.0619,0.0602,0.0603,0.0567,0.0557,0.0542,0.0504,0.0473,0.0435,0.04,0.0379,0.0391,0.0318,0.0386,0.0418,0.0333,0.0329,0.0325,0.0233,0.022,0.0389,0.039,0.039,0,0.0638,0.0623,0.0622,0.0597,0.0578,0.0575,0.0539,0.0527,0.0526,0.0472,0.0468,0.0432,0.0387,0.0371,0.0361,0.035,0.029,0.0336,0.034,0.0338,0.0248,0.0244,0.0241,0.0282,0.0282,0.0282,0,0,0.0631,0.0633,0.0593,0.0589,0.058,0.0545,0.0532,0.0516,0.0487,0.0479,0.0448,0.0416,0.0388,0.0374,0.0343,0.0328,0.0265,0.0326,0.0331,0.0335,0.0336,0.0248,0.0244,0.0282,0.0282,0.0282,0,0,0.062,0.0589,0.0581,0.0573,0.0547,0.0501,0.05,0.0482,0.0463,0.0467,0.0422,0.0412,0.0395,0.0366,0.0367,0.0339,0.0315,0.0314,0.0365,0.0371,0.0376,0.0386,0.0332,0,0,0,0,0,0.059,0.0593,0.0586,0.0579,0.0536,0.0506,0.05,0.0474,0.0469,0.0472,0.0445,0.042,0.0359,0.0359,0.0349,0.0356,0.0278,0.0279,0.0279,0.0341,0.0348,0.0353,0,0,0,0,0,0,0.0587,0.058,0.0585,0.0541,0.053,0.0506,0.0486,0.0479,0.0469,0.0467,0.0426,0.0418,0.0387,0.0361,0.0353,0.036,0.0335,0.0278,0.0279,0.0279,0.0344,0.0349,0.0353,0,0,0,0,0,0.0584,0.0578,0.0521,0.054,0.0531,0.0493,0.0487,0.0481,0.0478,0.0425,0.0418,0.046,0.0388,0.0378,0.0356,0.0365,0.034,0.0337,0.0279,0.0279,0.0279,0.0346,0,0,0,0,0,0,0.0582,0.0574,0.0518,0.0513,0.0542,0.0494,0.0488,0.0482,0.0437,0.0429,0.0456,0.0455,0.0388,0.0381,0.0374,0.037,0.0345,0.0342,0.034,0.0279,0.0279,0.028,0,0,0,0,0,0,0.0577,0.0571,0.0516,0.052,0.0516,0.0495,0.049,0.0458,0.0436,0.0471,0.0468,0.0456,0.0393,0.0382,0.0377,0.0329,0.0348,0.0345,0.0343,0.0342,0.0279,0.028,0,0,0,0,0,0,0.0574,0.0569,0.0521,0.0518,0.0515,0.0464,0.0466,0.0423,0.0444,0.0473,0.0444,0.0444,0.0394,0.0389,0.0379,0.0334,0.033,0.0348,0.0346,0.0345,0.0344,0,0,0,0,0,0,0,0.0571,0.0615,0.0541,0.0517,0.0513,0.0471,0.047,0.0469,0.0444,0.0444,0.0444,0.0444,0.0365,0.0362,0.0358,0.0337,0,0,0.0348,0.0347,0,0,0,0,0,0,0,0,0.0616,0.0616,0.0541,0.054,0.0539,0.047,0.047,0.0469,0.0444,0.0444,0.0444,0.0444,0.0364,0.0361,0.0359,0,0,0,0,0,0,0,0,0,0,0,0,0,0,0,0.0541,0.054,0,0.047,0.047,0.0469,0.0444,0.0444,0.0444,0.0444,0.0363,0.0361,0.0359,0,0,0,0,0,0,0,0,0,0,0,0,0,0,0,0,0,0,0,0,0,0,0,0,0,0,0,0,0,0,0,0,0,0,0,0,0,0,0,0,0,0,0,0,0,0,0,0,0,0,0,0,0,0,0,0,0,0,0,0,0,0,0,0,0,0,0,0,0]}]]]